Time,TemperatureF,DewpointF,PressureIn,WindDirection,WindDirectionDegrees,WindSpeedMPH,WindSpeedGustMPH,Humidity,HourlyPrecipIn,Conditions,Clouds,dailyrainin,SolarRadiationWatts/m^2,SoftwareType,DateUTC
2013-04-08 00:43:00,32.0,11.0,-100.00,NW,320,1.0,3.0,41,-99.99,,,0.01,1.000000,,2013-04-08 06:43:00,
2013-04-08 00:52:00,32.0,11.0,-100.00,NW,320,1.0,3.0,41,-99.99,,,0.01,1.000000,,2013-04-08 06:52:00,
2013-04-08 01:02:00,32.0,11.0,-100.00,NW,320,1.0,3.0,41,-99.99,,,0.01,1.000000,,2013-04-08 07:02:00,
2013-04-08 01:12:00,32.0,11.0,-100.00,NW,320,1.0,3.0,41,-99.99,,,0.01,1.000000,,2013-04-08 07:12:00,
2013-04-08 01:42:00,34.0,12.0,-100.00,NNW,340,1.0,5.0,40,-99.99,,,0.01,1.000000,,2013-04-08 07:42:00,
2013-04-08 01:52:00,34.0,12.0,-100.00,NNW,340,1.0,5.0,40,-99.99,,,0.01,1.000000,,2013-04-08 07:52:00,
2013-04-08 02:02:00,34.0,12.0,-100.00,NNW,340,1.0,5.0,40,-99.99,,,0.01,1.000000,,2013-04-08 08:02:00,
2013-04-08 02:11:00,34.0,12.0,-100.00,NNW,340,1.0,5.0,40,-99.99,,,0.01,1.000000,,2013-04-08 08:11:00,
2013-04-08 02:43:00,32.0,12.0,-100.00,NNW,343,1.0,3.0,43,0.00,,,0.01,1.000000,,2013-04-08 08:43:00,
2013-04-08 02:52:00,32.0,12.0,-100.00,NNW,343,1.0,3.0,43,0.00,,,0.01,1.000000,,2013-04-08 08:52:00,
2013-04-08 03:02:00,32.0,12.0,-100.00,NNW,343,1.0,3.0,43,0.00,,,0.01,1.000000,,2013-04-08 09:02:00,
2013-04-08 03:12:00,32.0,12.0,-100.00,NNW,343,1.0,3.0,43,0.00,,,0.01,1.000000,,2013-04-08 09:12:00,
2013-04-08 03:43:00,34.0,13.0,-100.00,NNE,18,1.0,5.0,42,0.00,,,0.01,1.000000,,2013-04-08 09:43:00,
2013-04-08 03:53:00,34.0,13.0,-100.00,NNE,18,1.0,5.0,42,0.00,,,0.01,1.000000,,2013-04-08 09:53:00,
2013-04-08 04:03:00,34.0,13.0,-100.00,NNE,18,1.0,5.0,42,0.00,,,0.01,1.000000,,2013-04-08 10:03:00,
2013-04-08 04:12:00,34.0,13.0,-100.00,NNE,18,1.0,5.0,42,0.00,,,0.01,1.000000,,2013-04-08 10:12:00,
2013-04-08 04:43:00,31.0,14.0,-100.00,NW,319,2.0,3.0,48,0.00,,,0.01,1.000000,,2013-04-08 10:43:00,
2013-04-08 04:53:00,31.0,14.0,-100.00,NW,319,2.0,3.0,48,0.00,,,0.01,1.000000,,2013-04-08 10:53:00,
2013-04-08 05:02:00,31.0,14.0,-100.00,NW,319,2.0,3.0,48,0.00,,,0.01,1.000000,,2013-04-08 11:02:00,
2013-04-08 05:12:00,31.0,14.0,-100.00,NW,319,2.0,3.0,48,0.00,,,0.01,1.000000,,2013-04-08 11:12:00,
2013-04-08 05:43:00,32.0,14.0,-100.00,NW,322,2.0,4.0,47,0.01,,,0.02,1.000000,,2013-04-08 11:43:00,
2013-04-08 05:52:00,32.0,14.0,-100.00,NW,322,2.0,4.0,47,0.01,,,0.02,1.000000,,2013-04-08 11:52:00,
2013-04-08 06:02:00,32.0,14.0,-100.00,NW,322,2.0,4.0,47,0.01,,,0.02,1.000000,,2013-04-08 12:02:00,
2013-04-08 06:12:00,32.0,14.0,-100.00,NW,322,2.0,4.0,47,0.01,,,0.02,1.000000,,2013-04-08 12:12:00,
2013-04-08 06:43:00,34.0,15.0,-100.00,NW,319,2.0,5.0,46,0.00,,,0.02,1.000000,,2013-04-08 12:43:00,
2013-04-08 06:52:00,34.0,15.0,-100.00,NW,319,2.0,5.0,46,0.00,,,0.02,1.000000,,2013-04-08 12:52:00,
2013-04-08 07:02:00,34.0,15.0,-100.00,NW,319,2.0,5.0,46,0.00,,,0.02,1.000000,,2013-04-08 13:02:00,
2013-04-08 07:12:00,34.0,15.0,-100.00,NW,319,2.0,5.0,46,0.00,,,0.02,1.000000,,2013-04-08 13:12:00,
2013-04-08 07:43:00,33.0,17.0,-100.00,NNW,329,2.0,4.0,51,0.00,,,0.02,4.000000,,2013-04-08 13:43:00,
2013-04-08 07:52:00,33.0,17.0,-100.00,NNW,329,2.0,4.0,51,0.00,,,0.02,4.000000,,2013-04-08 13:52:00,
2013-04-08 08:02:00,33.0,17.0,-100.00,NNW,329,2.0,4.0,51,0.00,,,0.02,4.000000,,2013-04-08 14:02:00,
2013-04-08 08:12:00,33.0,17.0,-100.00,NNW,329,2.0,4.0,51,0.00,,,0.02,4.000000,,2013-04-08 14:12:00,
2013-04-08 08:33:00,38.0,20.0,-100.00,NW,319,2.0,5.0,47,0.00,,,0.02,49.000000,,2013-04-08 14:33:00,
2013-04-08 08:43:00,38.0,20.0,-100.00,NW,319,2.0,5.0,47,0.00,,,0.02,49.000000,,2013-04-08 14:43:00,
2013-04-08 08:52:00,38.0,20.0,-100.00,NW,319,2.0,5.0,47,0.00,,,0.02,49.000000,,2013-04-08 14:52:00,
2013-04-08 09:02:00,38.0,20.0,-100.00,NW,319,2.0,5.0,47,0.00,,,0.02,49.000000,,2013-04-08 15:02:00,
2013-04-08 09:12:00,38.0,20.0,-100.00,NW,319,2.0,5.0,47,0.00,,,0.02,49.000000,,2013-04-08 15:12:00,
2013-04-08 09:35:00,48.0,23.0,-100.00,NW,315,3.0,5.0,37,0.00,,,0.02,180.000000,,2013-04-08 15:35:00,
2013-04-08 09:43:00,48.0,23.0,-100.00,NW,315,3.0,5.0,37,0.00,,,0.02,180.000000,,2013-04-08 15:43:00,
2013-04-08 09:53:00,48.0,23.0,-100.00,NW,315,3.0,5.0,37,0.00,,,0.02,180.000000,,2013-04-08 15:53:00,
2013-04-08 10:03:00,48.0,23.0,-100.00,NW,315,3.0,5.0,37,0.00,,,0.02,180.000000,,2013-04-08 16:03:00,
2013-04-08 10:12:00,48.0,23.0,-100.00,NW,315,3.0,5.0,37,0.00,,,0.02,180.000000,,2013-04-08 16:12:00,
2013-04-08 11:44:00,61.0,27.0,-100.00,South,179,8.0,18.0,27,-99.99,,,0.02,462.000000,,2013-04-08 17:44:00,
2013-04-08 11:52:00,61.0,27.0,-100.00,South,179,8.0,18.0,27,-99.99,,,0.02,462.000000,,2013-04-08 17:52:00,
2013-04-08 12:02:00,61.0,27.0,-100.00,South,179,8.0,18.0,27,-99.99,,,0.02,462.000000,,2013-04-08 18:02:00,
2013-04-08 12:11:00,61.0,27.0,-100.00,South,179,8.0,18.0,27,-99.99,,,0.02,462.000000,,2013-04-08 18:11:00,
2013-04-08 12:42:00,63.0,25.0,-100.00,South,183,10.0,21.0,23,0.00,,,0.02,468.000000,,2013-04-08 18:42:00,
2013-04-08 12:52:00,63.0,25.0,-100.00,South,183,10.0,21.0,23,0.00,,,0.02,468.000000,,2013-04-08 18:52:00,
2013-04-08 13:02:00,63.0,25.0,-100.00,South,183,10.0,21.0,23,0.00,,,0.02,468.000000,,2013-04-08 19:02:00,
2013-04-08 13:12:00,63.0,25.0,-100.00,South,183,10.0,21.0,23,0.00,,,0.02,468.000000,,2013-04-08 19:12:00,
2013-04-08 13:43:00,68.0,23.0,-100.00,SE,141,10.0,22.0,18,0.00,,,0.02,556.000000,,2013-04-08 19:43:00,
2013-04-08 13:52:00,68.0,23.0,-100.00,SE,141,10.0,22.0,18,0.00,,,0.02,556.000000,,2013-04-08 19:52:00,
2013-04-08 14:02:00,68.0,23.0,-100.00,SE,141,10.0,22.0,18,0.00,,,0.02,556.000000,,2013-04-08 20:02:00,
2013-04-08 14:12:00,68.0,23.0,-100.00,SE,141,10.0,22.0,18,0.00,,,0.02,556.000000,,2013-04-08 20:12:00,
2013-04-08 14:43:00,68.0,17.0,-100.00,SSE,155,9.0,20.0,14,0.00,,,0.02,627.000000,,2013-04-08 20:43:00,
2013-04-08 14:52:00,68.0,17.0,-100.00,SSE,155,9.0,20.0,14,0.00,,,0.02,627.000000,,2013-04-08 20:52:00,
2013-04-08 15:02:00,68.0,17.0,-100.00,SSE,155,9.0,20.0,14,0.00,,,0.02,627.000000,,2013-04-08 21:02:00,
2013-04-08 15:12:00,68.0,17.0,-100.00,SSE,155,9.0,20.0,14,0.00,,,0.02,627.000000,,2013-04-08 21:12:00,
2013-04-08 15:43:00,70.0,9.0,-100.00,South,186,12.0,24.0,9,0.00,,,0.02,571.000000,,2013-04-08 21:43:00,
2013-04-08 15:53:00,70.0,9.0,-100.00,South,186,12.0,24.0,9,0.00,,,0.02,571.000000,,2013-04-08 21:53:00,
2013-04-08 16:43:00,70.0,9.0,-100.00,SSW,196,17.0,30.0,9,0.00,,,0.02,551.000000,,2013-04-08 22:43:00,
2013-04-08 17:12:00,70.0,9.0,-100.00,SSW,196,17.0,30.0,9,0.00,,,0.02,551.000000,,2013-04-08 23:12:00,
2013-04-08 17:43:00,67.0,4.0,-100.00,SSW,204,14.0,31.0,8,0.00,,,0.02,313.000000,,2013-04-08 23:43:00,
2013-04-08 18:42:00,57.0,25.0,-100.00,West,275,14.0,30.0,29,0.00,,,0.02,115.000000,,2013-04-09 00:42:00,
2013-04-08 19:12:00,57.0,25.0,-100.00,West,275,14.0,30.0,29,0.00,,,0.02,115.000000,,2013-04-09 01:12:00,
2013-04-08 19:34:00,48.0,30.0,-100.00,WNW,287,9.0,28.0,50,0.00,,,0.02,53.000000,,2013-04-09 01:34:00,
2013-04-08 19:42:00,48.0,30.0,-100.00,WNW,287,9.0,28.0,50,0.00,,,0.02,53.000000,,2013-04-09 01:42:00,
2013-04-08 19:52:00,48.0,30.0,-100.00,WNW,287,9.0,28.0,50,0.00,,,0.02,53.000000,,2013-04-09 01:52:00,
2013-04-08 20:02:00,48.0,30.0,-100.00,WNW,287,9.0,28.0,50,0.00,,,0.02,53.000000,,2013-04-09 02:02:00,
2013-04-08 20:12:00,48.0,30.0,-100.00,WNW,287,9.0,28.0,50,0.00,,,0.02,53.000000,,2013-04-09 02:12:00,
2013-04-08 20:44:00,42.0,28.0,-100.00,WNW,295,9.0,20.0,57,0.00,,,0.02,7.000000,,2013-04-09 02:44:00,
2013-04-08 20:52:00,42.0,28.0,-100.00,WNW,295,9.0,20.0,57,0.00,,,0.02,7.000000,,2013-04-09 02:52:00,
2013-04-08 21:02:00,42.0,28.0,-100.00,WNW,295,9.0,20.0,57,0.00,,,0.02,7.000000,,2013-04-09 03:02:00,
2013-04-08 21:12:00,42.0,28.0,-100.00,WNW,295,9.0,20.0,57,0.00,,,0.02,7.000000,,2013-04-09 03:12:00,
2013-04-08 21:43:00,40.0,27.0,-100.00,WNW,284,2.0,16.0,60,0.00,,,0.02,1.000000,,2013-04-09 03:43:00,
2013-04-08 21:53:00,40.0,27.0,-100.00,WNW,284,2.0,16.0,60,0.00,,,0.02,1.000000,,2013-04-09 03:53:00,
2013-04-08 22:02:00,40.0,27.0,-100.00,WNW,284,2.0,16.0,60,0.00,,,0.02,1.000000,,2013-04-09 04:02:00,
2013-04-08 22:12:00,40.0,27.0,-100.00,WNW,284,2.0,16.0,60,0.00,,,0.02,1.000000,,2013-04-09 04:12:00,
2013-04-08 22:43:00,39.0,32.0,-100.00,SW,233,1.0,12.0,77,0.01,,,0.02,1.000000,,2013-04-09 04:43:00,
2013-04-08 22:53:00,39.0,32.0,-100.00,SW,233,1.0,12.0,77,0.01,,,0.02,1.000000,,2013-04-09 04:53:00,
2013-04-08 23:02:00,39.0,32.0,-100.00,SW,233,1.0,12.0,77,0.01,,,0.02,1.000000,,2013-04-09 05:02:00,
2013-04-08 23:12:00,39.0,32.0,-100.00,SW,233,1.0,12.0,77,0.01,,,0.02,1.000000,,2013-04-09 05:12:00,
2013-04-08 23:32:00,37.0,32.0,-100.00,North,6,0.0,7.0,81,0.00,,,0.02,1.000000,,2013-04-09 05:32:00,
2013-04-08 23:43:00,37.0,32.0,-100.00,North,6,0.0,7.0,81,0.00,,,0.02,1.000000,,2013-04-09 05:43:00,
2013-04-08 23:52:00,37.0,32.0,-100.00,North,6,0.0,7.0,81,0.00,,,0.02,1.000000,,2013-04-09 05:52:00,